• In Hungary
  • List of Countries
  • For 7 days
  • Water Temperature
  • Satellite Maps
  • Weather Map
  • News
  • Weather Widgets
  • user-avatar
    Login

    Hourly Weather Novouspenovka

    Today, 15 October, Monday

    Time Temperature Precipitation Wind Pressure Humidity
    00:00 0°C° 0 mm 3 mps 748 mmHg 63%
    01:00 0°C° 0 mm 3 mps 748 mmHg 66%
    02:00 -1°C° 0 mm 3 mps 748 mmHg 69%
    03:00 -1°C° 0 mm 3 mps 748 mmHg 71%
    04:00 -1°C° 0 mm 3 mps 748 mmHg 75%
    05:00 -2°C° 0 mm 3 mps 748 mmHg 76%
    06:00 -2°C° 0 mm 3 mps 749 mmHg 78%
    07:00 -2°C° 0 mm 3 mps 749 mmHg 79%
    08:00 -1°C° 0 mm 3 mps 749 mmHg 71%
    09:00 0°C° 0 mm 4 mps 749 mmHg 63%
    10:00 +1°C° 0 mm 4 mps 749 mmHg 54%
    11:00 +3°C° 0 mm 4 mps 749 mmHg 51%
    12:00 +3°C° 0 mm 5 mps 749 mmHg 48%
    13:00 +3°C° 0 mm 5 mps 749 mmHg 45%
    14:00 +4°C° 0 mm 4 mps 749 mmHg 45%
    15:00 +4°C° 0 mm 4 mps 749 mmHg 45%
    16:00 +4°C° 0 mm 4 mps 750 mmHg 44%
    17:00 +4°C° 0 mm 4 mps 750 mmHg 48%
    18:00 +3°C° 0 mm 3 mps 750 mmHg 51%
    19:00 +3°C° 0 mm 2 mps 750 mmHg 55%
    20:00 +2°C° 0 mm 2 mps 750 mmHg 57%
    21:00 +3°C° 0 mm 1 mps 751 mmHg 59%
    22:00 +3°C° 0 mm 1 mps 751 mmHg 61%
    23:00 +2°C° 0 mm 1 mps 751 mmHg 62%

    Tomorrow, 16 October, Tuesday

    Time Temperature Precipitation Wind Pressure Humidity
    00:00 +1°C° 0 mm 0 mps 751 mmHg 63%
    01:00 +1°C° 0 mm 0 mps 751 mmHg 65%
    02:00 +1°C° 0 mm 0 mps 751 mmHg 63%
    03:00 +2°C° 0 mm 0 mps 751 mmHg 61%
    04:00 +3°C° 0 mm 1 mps 751 mmHg 60%
    05:00 +3°C° 0.1 mm 1 mps 751 mmHg 62%
    06:00 +3°C° 0.1 mm 1 mps 751 mmHg 63%
    07:00 +3°C° 0.1 mm 1 mps 751 mmHg 65%
    08:00 +3°C° 0.1 mm 2 mps 751 mmHg 66%
    09:00 +3°C° 0.1 mm 2 mps 752 mmHg 68%
    10:00 +2°C° 0.1 mm 3 mps 752 mmHg 69%
    11:00 +3°C° 0 mm 3 mps 752 mmHg 68%
    12:00 +3°C° 0 mm 4 mps 752 mmHg 67%
    13:00 +4°C° 0 mm 4 mps 752 mmHg 65%
    14:00 +4°C° 0 mm 4 mps 752 mmHg 66%
    15:00 +4°C° 0 mm 4 mps 752 mmHg 67%
    16:00 +4°C° 0 mm 4 mps 751 mmHg 68%
    17:00 +4°C° 0 mm 4 mps 751 mmHg 70%
    18:00 +4°C° 0 mm 4 mps 751 mmHg 72%
    19:00 +4°C° 0 mm 4 mps 751 mmHg 74%
    20:00 +4°C° 0 mm 4 mps 751 mmHg 76%
    21:00 +4°C° 0 mm 4 mps 751 mmHg 79%
    22:00 +5°C° 0 mm 4 mps 751 mmHg 81%
    23:00 +5°C° 0 mm 4 mps 750 mmHg 83%

    Day after tomorrow, 17 October, Wednesday

    Time Temperature Precipitation Wind Pressure Humidity
    00:00 +5°C° 0 mm 4 mps 750 mmHg 86%
    01:00 +6°C° 0 mm 4 mps 750 mmHg 88%
    02:00 +6°C° 0 mm 4 mps 749 mmHg 89%
    03:00 +6°C° 0 mm 5 mps 749 mmHg 91%
    04:00 +6°C° 0 mm 5 mps 749 mmHg 93%
    05:00 +6°C° 0 mm 4 mps 748 mmHg 93%
    06:00 +6°C° 0 mm 4 mps 748 mmHg 94%
    07:00 +6°C° 0 mm 4 mps 748 mmHg 95%
    08:00 +7°C° 0 mm 5 mps 747 mmHg 87%
    09:00 +9°C° 0 mm 5 mps 747 mmHg 80%
    10:00 +10°C° 0 mm 6 mps 747 mmHg 73%
    11:00 +11°C° 0 mm 7 mps 746 mmHg 67%
    12:00 +12°C° 0 mm 7 mps 746 mmHg 61%
    13:00 +15°C° 0 mm 8 mps 745 mmHg 54%
    14:00 +15°C° 0 mm 7 mps 745 mmHg 52%
    15:00 +15°C° 0 mm 7 mps 745 mmHg 50%
    16:00 +15°C° 0 mm 7 mps 744 mmHg 48%
    17:00 +14°C° 0 mm 6 mps 744 mmHg 51%
    18:00 +11°C° 0 mm 6 mps 744 mmHg 55%
    19:00 +10°C° 0 mm 5 mps 744 mmHg 59%
    20:00 +9°C° 0 mm 6 mps 744 mmHg 63%
    21:00 +9°C° 0 mm 6 mps 745 mmHg 67%
    22:00 +8°C° 0 mm 7 mps 745 mmHg 71%
    23:00 +7°C° 0 mm 6 mps 745 mmHg 68%

    18 October, Thursday

    Time Temperature Precipitation Wind Pressure Humidity
    00:00 +5°C° 0 mm 6 mps 746 mmHg 66%
    01:00 +5°C° 0 mm 5 mps 746 mmHg 63%
    02:00 +5°C° 0 mm 5 mps 747 mmHg 65%
    03:00 +3°C° 0 mm 5 mps 747 mmHg 67%
    04:00 +4°C° 0 mm 4 mps 748 mmHg 69%
    05:00 +3°C° 0 mm 4 mps 748 mmHg 72%
    06:00 +3°C° 0 mm 4 mps 748 mmHg 75%
    07:00 +1°C° 0 mm 4 mps 749 mmHg 77%
    08:00 +3°C° 0 mm 4 mps 749 mmHg 72%
    09:00 +5°C° 0 mm 4 mps 749 mmHg 67%
    10:00 +6°C° 0 mm 5 mps 749 mmHg 61%
    11:00 +7°C° 0 mm 5 mps 749 mmHg 57%
    12:00 +8°C° 0 mm 6 mps 749 mmHg 52%
    13:00 +9°C° 0 mm 6 mps 748 mmHg 47%
    14:00 +9°C° 0 mm 6 mps 748 mmHg 47%
    15:00 +9°C° 0 mm 6 mps 748 mmHg 46%
    16:00 +9°C° 0 mm 6 mps 748 mmHg 46%
    17:00 +8°C° 0 mm 6 mps 748 mmHg 50%
    18:00 +7°C° 0 mm 5 mps 748 mmHg 55%
    19:00 +6°C° 0 mm 4 mps 749 mmHg 59%
    20:00 +5°C° 0 mm 4 mps 749 mmHg 63%
    21:00 +5°C° 0 mm 3 mps 749 mmHg 66%
    22:00 +4°C° 0 mm 3 mps 749 mmHg 69%
    23:00 +4°C° 0 mm 3 mps 749 mmHg 71%

    19 October, Friday

    Time Temperature Precipitation Wind Pressure Humidity
    00:00 +4°C° 0 mm 3 mps 748 mmHg 72%
    01:00 +3°C° 0 mm 3 mps 748 mmHg 74%
    02:00 +3°C° 0 mm 3 mps 748 mmHg 74%
    03:00 +3°C° 0 mm 3 mps 748 mmHg 74%
    04:00 +3°C° 0 mm 3 mps 748 mmHg 74%
    05:00 +3°C° 0 mm 3 mps 748 mmHg 73%
    06:00 +3°C° 0 mm 3 mps 748 mmHg 73%
    07:00 +3°C° 0 mm 3 mps 748 mmHg 73%
    08:00 +4°C° 0 mm 3 mps 749 mmHg 67%
    09:00 +5°C° 0 mm 4 mps 749 mmHg 60%
    10:00 +7°C° 0 mm 4 mps 749 mmHg 54%
    11:00 +7°C° 0 mm 4 mps 749 mmHg 51%
    12:00 +8°C° 0 mm 4 mps 749 mmHg 49%
    13:00 +10°C° 0 mm 4 mps 749 mmHg 46%
    14:00 +10°C° 0 mm 4 mps 749 mmHg 45%
    15:00 +11°C° 0 mm 4 mps 748 mmHg 45%
    16:00 +11°C° 0 mm 4 mps 748 mmHg 44%
    17:00 +10°C° 0 mm 4 mps 748 mmHg 48%
    18:00 +9°C° 0 mm 3 mps 748 mmHg 52%
    19:00 +8°C° 0 mm 3 mps 748 mmHg 56%
    20:00 +8°C° 0 mm 3 mps 748 mmHg 57%
    21:00 +7°C° 0 mm 4 mps 748 mmHg 58%
    22:00 +7°C° 0 mm 4 mps 748 mmHg 60%
    23:00 +7°C° 0 mm 4 mps 748 mmHg 61%

    20 October, Saturday

    Time Temperature Precipitation Wind Pressure Humidity
    00:00 +6°C° 0 mm 4 mps 748 mmHg 62%
    01:00 +6°C° 0 mm 4 mps 748 mmHg 63%
    02:00 +6°C° 0 mm 4 mps 748 mmHg 63%
    03:00 +6°C° 0 mm 5 mps 748 mmHg 63%
    04:00 +5°C° 0 mm 5 mps 748 mmHg 62%
    05:00 +5°C° 0 mm 5 mps 748 mmHg 63%
    06:00 +5°C° 0 mm 5 mps 748 mmHg 63%
    07:00 +5°C° 0 mm 5 mps 748 mmHg 63%
    08:00 +6°C° 0 mm 5 mps 748 mmHg 60%
    09:00 +8°C° 0 mm 6 mps 748 mmHg 57%
    10:00 +9°C° 0 mm 6 mps 748 mmHg 54%
    11:00 +11°C° 0 mm 6 mps 748 mmHg 53%
    12:00 +13°C° 0 mm 6 mps 748 mmHg 51%
    13:00 +14°C° 0 mm 6 mps 748 mmHg 50%
    14:00 +14°C° 0 mm 6 mps 747 mmHg 50%
    15:00 +14°C° 0 mm 6 mps 747 mmHg 50%
    16:00 +14°C° 0 mm 6 mps 747 mmHg 50%
    17:00 +14°C° 0 mm 5 mps 747 mmHg 52%
    18:00 +13°C° 0 mm 5 mps 747 mmHg 53%
    19:00 +12°C° 0 mm 4 mps 747 mmHg 55%
    20:00 +11°C° 0 mm 4 mps 747 mmHg 53%
    21:00 +11°C° 0 mm 4 mps 747 mmHg 51%
    22:00 +11°C° 0 mm 4 mps 747 mmHg 49%
    23:00 +10°C° 0 mm 4 mps 747 mmHg 49%
    Show more